PICSAT (43132 NORAD) Tracking and Keplerian Element Data

This shows tracking and keplerian element data for the satellite.

Feedback or suggestion? Click here.




ElementValue
Catalog43132
NamePICSAT
Epoch Orbit26198
Epoch Day270.15387821
Epoch Year2022
RAAN346.1002
Inclination97.3652
Eccentricity0.0006963
Argument of Perigee6.601
Mean Anonmoly353.5324
Mean Motion15.3386352
Decay Rate0.00018427
L11 43132U 18004X 22270.15387821 .00018427 00000+0 56389-3 0 9999
L22 43132 97.3652 346.1002 0006963 6.6010 353.5324 15.33863520261987

Live tracking and technical data element details for PICSAT (NORAD 43132). PICSAT can be tracked NOW for your location showing map with azimuth and elevation plus other details from your city location.

Track the satellite on the map from your city or location and see movement details for azimuth, elevation, latitude, longitude, range, height, and movement on the map or in text.







IsCatalogInMostPopularTable: catalog: 43132, numindb: 883
Update: records affected: 1



GetName: 43132 PICSAT

Hit Count: updated at: Fri, 30 Sep 2022 04:21:41 GMT